P/2017 Y3 ( Leonard )

Japanese version
Home page
Updated on January 12, 2018

---------------------------------------------------------------------

* Profile

Discovery Date December 26, 2017
Magnitude 19.8 mag
Discoverer G. J. Leonard (Mount Lemmon)

* Orbital Elements

Epoch 2018 Feb. 11.0 TT = JDT 2458160.5
T 2018 Feb. 11.37763 TT                                 MPCW
q   1.2740817            (2000.0)            P               Q
n   0.03368497     Peri.   67.62929     -0.70292488     +0.68133884
a   9.4953706      Node   153.84350     -0.69137959     -0.72191691
e   0.8658208      Incl.   27.58678     +0.16700559     -0.12088574
P  29.26
From 53 observations 2017 Dec. 26-2018 Jan. 11, mean residual 0".5.

* Magnitudes Graph

        m1 = 16.5 + 5 log d + 10.0 log r

---------------------------------------------------------------------

The orbital elements are published on M.P.E.C. 2018-A42.
The magnitudes graphs are made with Comet for Windows.

---------------------------------------------------------------------

Copyright(C) Seiichi Yoshida (comet@aerith.net). All rights reserved.